Location: Recife
(8.0585°S, 34.8848°W)
Time: 02:46:41
(UTC-03:00)

Courier 1B Rocket - Pass Details

Date: 19 April 2026
Orbit: 920 x 1201 km, 28.2° (Epoch: 14 May)

Event Time Altitude Azimuth Distance (km) Brightness Sun altitude
Exits shadow 02:44:40 29° 111° (ESE) 1,621 6.5 -39.2°
Drops below altitude 10° 02:47:40 10° 115° (ESE) 2,656 7.8 -38.5°
Sets 02:50:21 0° 116° (ESE) 3,631 8.7 -37.8°
